Weather History for Midland Airpark, TX

Change the Weather History Date:

Monday, November 12, 2012

  Actual Average (KMAF) Record (KMAF)
Temperature  
Mean Temperature 44 °F 54 °F  
Max Temperature 56 °F 68 °F 84 °F (1938)
Min Temperature 32 °F 41 °F 19 °F (1932)
Degree Days  
Heating Degree Days 21 11  
Month to date heating degree days 106  
Since 1 July heating degree days 215  
Moisture  
Dew Point 14 °F    
Average Humidity 30    
Maximum Humidity 45    
Minimum Humidity 19    
Precipitation  
Precipitation 0.00 in 0.02 in 0.32 in (1997)
Month to date precipitation 0.30  
Year to date precipitation 13.61  
Snow  
Snow 0.00 in - - ()
Month to date snowfall  
Since 1 July snowfall  
Since 1 September snowfall  
Snow Depth -    
Sea Level Pressure  
Sea Level Pressure 30.41 in    
Wind  
Wind Speed 4 mph (ENE)    
Max Wind Speed 8 mph    
Max Gust Speed -    
Visibility 10 miles    
Events      
T = Trace of Precipitation, MM = Missing Value Source: NWS Daily Summary

Daily Weather History Graph

Daily Weather History Graph

Search for Another Location

Airport:

Trip Planner

Search our weather history database for the weather conditions in past years. The results will help you decide how hot, cold, wet, or windy it might be!

Date:

Astronomy

Nov. 12, 2012 Rise Set
Actual Time 7:14 AM CST 5:49 PM CST
Civil Twilight 6:49 AM CST 6:15 PM CST
Nautical Twilight 6:19 AM CST 6:45 PM CST
Astronomical Twilight 5:50 AM CST 7:14 PM CST
Moon 5:45 AM CST (11/12) 4:55 PM CST (11/12)
Length of Visible Light 11h 26m
Length of Day
10h 34m
Waning Crescent, 2% of the Moon is Illuminated
Nov 12
Waning Crescent
Nov 13
New
Nov 20
First Quarter
Nov 28
Full
Dec 6
Last Quarter

Hourly Weather History & Observations

Time (CST) Temp. Windchill Dew Point Humidity Pressure Visibility Wind Dir Wind Speed Gust Speed Precip Events Conditions
12:15 AM 42.6 °F 38.4 °F 6.6 °F 23% 30.33 in 10.0 mi WNW 6.9 mph - N/A   Clear
12:55 AM 43.2 °F 39.7 °F 5.5 °F 21% 30.34 in 10.0 mi NW 5.8 mph - N/A   Clear
1:15 AM 42.3 °F 37.9 °F 5.9 °F 22% 30.34 in 10.0 mi NW 6.9 mph - N/A   Clear
1:55 AM 39.9 °F 36.7 °F 6.6 °F 25% 30.35 in 10.0 mi NW 4.6 mph - N/A   Clear
2:15 AM 39.4 °F 34.5 °F 6.3 °F 25% 30.35 in 10.0 mi NW 6.9 mph - N/A   Clear
2:35 AM 38.5 °F 36.1 °F 6.8 °F 27% 30.35 in 10.0 mi WNW 3.5 mph - N/A   Clear
2:55 AM 37.9 °F 33.5 °F 7.0 °F 28% 30.35 in 10.0 mi NW 5.8 mph - N/A   Clear
3:15 AM 37.8 °F 33.3 °F 7.5 °F 29% 30.35 in 10.0 mi WNW 5.8 mph - N/A   Clear
3:35 AM 37.0 °F 32.4 °F 7.5 °F 29% 30.37 in 10.0 mi West 5.8 mph - N/A   Clear
3:55 AM 37.2 °F 33.6 °F 7.0 °F 28% 30.37 in 10.0 mi WNW 4.6 mph - N/A   Clear
4:15 AM 37.4 °F 33.8 °F 7.2 °F 29% 30.37 in 10.0 mi NW 4.6 mph - N/A   Clear
4:35 AM 36.9 °F 33.1 °F 7.0 °F 29% 30.37 in 10.0 mi North 4.6 mph - N/A   Clear
4:55 AM 35.2 °F 32.4 °F 8.2 °F 33% 30.38 in 10.0 mi North 3.5 mph - N/A   Clear
5:15 AM 35.1 °F 32.2 °F 7.5 °F 32% 30.39 in 10.0 mi NNW 3.5 mph - N/A   Clear
5:35 AM 34.3 °F 31.4 °F 8.1 °F 33% 30.40 in 10.0 mi NNE 3.5 mph - N/A   Clear
5:55 AM 34.2 °F 31.2 °F 7.5 °F 33% 30.41 in 10.0 mi NNE 3.5 mph - N/A   Clear
6:55 AM 34.7 °F 29.6 °F 5.9 °F 30% 30.42 in 10.0 mi North 5.8 mph - N/A   Clear
7:15 AM 33.4 °F 28.1 °F 6.8 °F 33% 30.42 in 10.0 mi North 5.8 mph - N/A   Clear
7:35 AM 32.5 °F 27.1 °F 8.2 °F 36% 30.43 in 10.0 mi North 5.8 mph - N/A   Clear
7:55 AM 33.4 °F 30.4 °F 11.3 °F 40% 30.44 in 10.0 mi North 3.5 mph - N/A   Clear
8:15 AM 34.7 °F - 14.5 °F 44% 30.44 in 10.0 mi Calm Calm - N/A   Clear
8:35 AM 37.0 °F - 17.4 °F 45% 30.46 in 10.0 mi Calm Calm - N/A   Clear
8:55 AM 39.0 °F 34.8 °F 13.8 °F 36% 30.46 in 10.0 mi NNW 5.8 mph - N/A   Clear
9:15 AM 40.8 °F 38.8 °F 9.5 °F 28% 30.47 in 10.0 mi North 3.5 mph - N/A   Clear
9:55 AM 42.8 °F 41.1 °F 12.6 °F 29% 30.47 in 10.0 mi NE 3.5 mph - N/A   Clear
10:15 AM 43.7 °F - 13.6 °F 30% 30.49 in 10.0 mi Calm Calm - N/A   Clear
10:35 AM 44.6 °F - 14.2 °F 29% 30.50 in 10.0 mi Calm Calm - N/A   Clear
10:55 AM 45.5 °F - 16.0 °F 31% 30.49 in 10.0 mi Calm Calm - N/A   Clear
11:15 AM 46.4 °F - 18.0 °F 32% 30.48 in 10.0 mi Calm Calm - N/A   Clear
11:35 AM 47.3 °F - 18.7 °F 32% 30.48 in 10.0 mi Calm Calm - N/A   Clear
11:55 AM 49.1 °F - 20.7 °F 33% 30.47 in 10.0 mi WNW 3.5 mph - N/A   Clear
12:15 PM 49.6 °F - 20.5 °F 32% 30.47 in 10.0 mi Calm Calm - N/A   Clear
12:35 PM 50.7 °F - 19.9 °F 30% 30.46 in 10.0 mi Calm Calm - N/A   Clear
12:55 PM 52.0 °F - 19.9 °F 28% 30.45 in 10.0 mi Calm Calm - N/A   Clear
1:15 PM 52.7 °F - 18.1 °F 26% 30.44 in 10.0 mi Calm Calm - N/A   Clear
1:35 PM 53.8 °F - 17.6 °F 24% 30.43 in 10.0 mi East 3.5 mph - N/A   Clear
1:55 PM 54.1 °F - 16.9 °F 23% 30.42 in 10.0 mi ESE 3.5 mph - N/A   Clear
2:35 PM 54.9 °F - 13.5 °F 19% 30.41 in 10.0 mi Calm Calm - N/A   Clear
2:55 PM 54.7 °F - 13.1 °F 19% 30.40 in 10.0 mi Calm Calm - N/A   Clear
3:15 PM 55.2 °F - 16.3 °F 22% 30.40 in 10.0 mi NE 3.5 mph - N/A   Clear
3:35 PM 55.8 °F - 17.4 °F 22% 30.39 in 10.0 mi Calm Calm - N/A   Clear
3:55 PM 56.3 °F - 16.0 °F 21% 30.39 in 10.0 mi East 3.5 mph - N/A   Clear
4:15 PM 56.1 °F - 14.9 °F 20% 30.38 in 10.0 mi East 4.6 mph - N/A   Clear
4:35 PM 56.3 °F - 16.7 °F 21% 30.38 in 10.0 mi East 5.8 mph - N/A   Clear
4:55 PM 55.8 °F - 17.1 °F 22% 30.37 in 10.0 mi East 5.8 mph - N/A   Clear
5:15 PM 55.6 °F - 16.5 °F 22% 30.38 in 10.0 mi East 4.6 mph - N/A   Clear
5:35 PM 54.9 °F - 15.3 °F 21% 30.38 in 10.0 mi East 5.8 mph - N/A   Clear
5:55 PM 53.8 °F - 15.6 °F 22% 30.38 in 10.0 mi East 3.5 mph - N/A   Clear
6:15 PM 53.1 °F - 16.9 °F 24% 30.39 in 10.0 mi ESE 3.5 mph - N/A   Clear
6:55 PM 52.0 °F - 18.7 °F 27% 30.40 in 10.0 mi ESE 4.6 mph - N/A   Clear
7:15 PM 51.1 °F - 18.9 °F 28% 30.40 in 10.0 mi ESE 4.6 mph - N/A   Clear
7:35 PM 50.4 °F - 18.5 °F 28% 30.40 in 10.0 mi ESE 5.8 mph - N/A   Clear
7:55 PM 49.3 °F - 18.3 °F 29% 30.41 in 10.0 mi ESE 6.9 mph - N/A   Clear
8:15 PM 48.4 °F - 18.1 °F 30% 30.41 in 10.0 mi ESE 6.9 mph - N/A   Clear
8:35 PM 47.7 °F - 18.3 °F 31% 30.41 in 10.0 mi ESE 8.1 mph - N/A   Clear
8:55 PM 46.9 °F - 18.9 °F 33% 30.42 in 10.0 mi ESE 6.9 mph - N/A   Clear
9:15 PM 46.4 °F 43.5 °F 19.0 °F 34% 30.44 in 10.0 mi SE 5.8 mph - N/A   Clear
9:35 PM 45.7 °F 41.5 °F 19.4 °F 35% 30.44 in 10.0 mi ESE 8.1 mph - N/A   Clear
9:55 PM 44.8 °F 41.0 °F 20.1 °F 37% 30.44 in 10.0 mi ESE 6.9 mph - N/A   Clear
10:15 PM 43.9 °F 39.9 °F 20.5 °F 39% 30.45 in 10.0 mi SE 6.9 mph - N/A   Clear
10:35 PM 43.5 °F 40.9 °F 20.8 °F 41% 30.45 in 10.0 mi ESE 4.6 mph - N/A   Clear
10:55 PM 43.0 °F 40.3 °F 21.0 °F 42% 30.45 in 10.0 mi ESE 4.6 mph - N/A   Clear
11:15 PM 42.6 °F 39.9 °F 21.2 °F 43% 30.44 in 10.0 mi SE 4.6 mph - N/A   Clear
11:35 PM 42.1 °F 38.4 °F 21.2 °F 43% 30.44 in 10.0 mi SE 5.8 mph - N/A   Clear
11:55 PM 41.9 °F 39.0 °F 21.2 °F 44% 30.44 in 10.0 mi ESE 4.6 mph - N/A   Clear